Theta_e
320 322 320 323 333 333 336 334 328 325 328 327 327 329 330 331 337 338 338 338 338 342 343 342 344 345 344 343 344 340 341 341 341 343 344 344 341 339 342 343 343 344 344 345 344 344 343 342 341
318 321 318 319 330 334 336 327 328 328 325 321 324 325 326 330 326 329 336 338 339 342 346 342 343 345 345 342 346 343 342 341 341 343 342 342 343 340 341 342 344 344 344 343 343 341 341 340 339
319 323 321 323 324 334 330 322 327 326 324 322 322 323 326 328 325 331 338 339 340 343 347 343 342 345 345 344 341 344 343 343 343 342 342 341 342 342 341 342 343 342 342 341 340 340 339 339 339
318 323 322 327 329 325 324 321 319 326 325 324 321 322 323 322 327 332 339 340 340 343 346 345 342 343 344 344 341 341 342 342 342 341 341 341 341 342 341 342 341 340 341 340 339 336 335 336 332
317 323 324 326 326 325 321 321 319 323 326 326 322 324 323 322 333 335 339 340 340 343 346 346 341 343 343 343 342 341 340 342 342 340 340 341 340 341 341 341 340 340 339 337 332 331 331 332 331
318 321 321 320 320 321 322 320 319 321 320 320 326 331 328 326 323 337 340 340 341 342 345 346 342 343 343 343 342 341 341 341 341 340 340 340 341 341 340 340 339 337 335 334 333 332 333 333 334
312 317 315 316 316 317 317 312 315 319 323 322 319 322 324 323 318 329 340 341 342 343 344 345 342 343 342 342 342 341 342 341 341 340 340 342 341 340 340 339 337 334 335 334 337 336 334 332 333
309 308 306 311 314 317 309 310 312 311 315 312 318 322 320 312 313 331 340 341 342 345 344 344 341 344 343 342 341 341 341 341 341 341 342 342 341 340 339 339 337 334 336 337 335 334 334 332 333
306 303 302 303 306 311 308 307 308 306 311 312 314 315 309 310 313 318 339 341 342 344 344 345 341 343 342 341 341 341 341 340 340 341 342 341 343 341 340 340 336 336 337 337 334 332 334 333 332
302 302 301 304 304 305 305 303 302 305 308 313 313 310 306 308 312 316 318 339 341 343 344 345 343 343 341 342 341 342 343 342 343 343 342 343 343 342 341 339 336 337 338 335 333 329 329 332 333
297 300 300 300 298 301 299 300 300 301 306 313 313 309 305 305 309 315 314 316 339 342 344 345 343 344 343 341 342 342 343 342 343 342 343 343 342 341 339 337 338 337 336 335 333 328 331 332 333
295 295 294 295 294 294 294 295 295 297 301 302 304 303 304 305 308 312 312 313 320 338 342 343 342 343 342 341 342 343 342 342 343 343 343 341 340 339 338 338 337 336 335 335 331 331 331 330 331
294 293 293 294 294 294 294 294 293 294 296 298 299 301 303 305 309 308 309 311 315 329 340 342 342 342 342 342 342 342 342 340 343 343 342 341 339 338 338 337 334 334 333 332 330 330 329 330 328
295 295 295 295 295 295 295 294 294 294 295 296 298 298 301 307 307 306 307 309 311 318 336 342 341 342 342 343 342 341 339 339 340 341 341 338 339 337 337 336 332 333 333 330 328 329 328 328 327
295 295 296 295 296 295 296 295 296 296 296 297 295 296 302 308 305 303 303 305 308 311 321 337 340 340 342 341 341 340 340 339 339 339 338 338 337 337 335 332 331 333 331 327 327 326 328 326 326
295 295 297 296 295 296 297 298 298 300 301 302 297 299 306 306 305 302 301 302 306 311 315 327 339 339 340 341 340 339 337 338 338 337 337 337 336 336 334 333 334 331 331 330 329 329 329 328 326
296 297 296 295 295 296 298 298 300 299 303 304 300 304 309 305 303 302 300 299 302 306 309 320 330 338 339 339 339 337 338 338 337 336 336 336 336 335 334 331 332 330 330 330 330 329 329 326 325
296 296 296 296 296 297 299 300 298 297 298 298 302 303 304 304 301 301 301 298 299 302 306 316 330 337 339 339 337 337 336 337 337 337 336 335 335 335 335 333 332 330 330 329 328 329 327 326 324
295 296 297 296 296 298 299 300 299 296 295 294 295 295 296 297 298 298 300 300 298 300 303 309 319 330 335 337 337 336 336 335 336 335 335 335 334 334 334 333 332 331 330 329 328 325 325 319 320
295 296 297 297 297 298 300 301 299 297 295 294 293 293 293 294 296 296 296 299 297 296 297 304 307 317 329 334 336 335 334 335 335 334 334 334 334 334 334 333 331 330 328 327 325 324 318 318 319
297 297 297 297 298 299 299 302 300 298 296 294 293 292 292 293 293 294 294 296 295 295 294 298 302 305 315 330 333 334 334 334 335 334 332 333 333 333 333 332 331 329 328 326 325 324 323 318 318
299 295 295 296 299 302 298 304 299 297 298 295 293 293 292 291 292 292 292 293 294 294 294 295 301 300 307 323 333 332 332 332 333 332 332 331 332 332 332 332 332 329 328 327 326 323 323 322 318
297 293 293 296 299 299 300 303 300 297 297 295 293 292 291 291 291 291 291 291 291 291 293 293 298 301 299 314 322 331 330 330 331 332 332 331 330 331 331 331 331 328 327 327 327 324 322 321 321
292 292 296 298 300 304 298 299 302 298 294 294 292 291 290 290 291 290 290 290 291 290 291 292 294 301 296 301 309 325 327 330 330 331 331 329 328 328 329 329 329 328 327 325 326 326 323 322 322
293 298 306 306 306 305 296 301 300 296 293 293 291 290 291 290 290 290 290 290 289 289 289 291 292 293 298 296 300 309 319 325 327 329 330 329 327 326 326 327 326 326 327 326 324 324 324 321 321
292 294 301 305 305 303 298 303 300 293 291 291 290 290 290 290 290 289 290 289 289 288 289 290 290 291 293 297 295 299 311 313 319 321 324 328 327 326 327 326 324 325 324 323 323 323 323 321 320
293 294 291 295 291 299 299 298 295 293 293 292 291 291 290 290 289 289 289 289 288 288 288 289 290 291 291 293 296 295 299 305 310 315 320 323 325 326 326 326 324 324 322 321 321 321 322 321 320
292 290 297 296 301 303 302 299 300 297 295 293 292 290 288 288 289 289 288 287 287 287 288 289 288 289 289 291 292 294 293 296 300 308 312 316 317 320 324 325 325 323 324 325 320 319 319 318 318
292 292 289 291 292 301 298 304 298 295 293 291 290 289 287 286 287 287 287 286 287 287 287 288 288 288 288 289 290 292 295 292 295 300 306 308 311 311 315 319 324 324 324 322 320 319 319 318 317
286 290 289 295 294 290 294 299 296 292 290 287 287 287 287 286 285 285 285 285 287 287 287 287 287 287 287 287 288 288 290 292 292 292 296 300 305 308 307 308 317 321 322 321 321 320 317 318 317
Wind_Speed
11 1 1 3 3 4 11 9 6 1 4 4 4 7 12 3 9 1 1 15 25 30 29 31 31 31 29 26 25 25 26 23 22 21 21 21 20 20 20 21 20 21 22 22 22 22 23 22 23
8 1 3 2 3 5 6 6 11 5 6 9 7 8 7 10 3 1 4 17 22 31 30 31 32 31 30 28 26 26 25 23 22 21 21 20 20 21 22 21 21 21 22 22 24 24 22 22 21
2 2 1 2 4 10 4 5 11 7 9 7 5 5 4 3 1 3 1 18 24 30 28 30 35 31 30 28 28 27 26 25 23 22 22 21 20 22 22 22 21 22 23 23 23 23 22 21 20
1 4 3 5 10 9 8 5 5 6 8 11 10 7 3 5 6 7 3 17 26 29 27 29 36 31 31 29 29 28 26 25 23 24 24 22 21 22 21 22 24 23 22 21 22 21 20 19 19
3 2 8 6 15 7 8 5 4 6 2 8 9 4 5 6 12 7 7 17 27 29 27 29 35 31 30 29 28 27 26 26 26 26 25 22 22 22 22 23 23 21 22 20 20 20 19 18 18
4 3 8 15 17 11 11 7 13 7 7 12 7 12 6 13 28 20 7 18 24 28 27 29 33 31 31 30 29 28 28 27 26 26 25 24 23 24 24 23 22 21 21 20 19 19 19 18 18
3 5 12 16 14 9 10 12 9 13 11 12 15 9 4 4 32 23 9 15 23 26 28 28 28 29 30 31 30 29 29 27 27 27 27 25 25 25 24 23 22 21 21 20 19 18 17 18 19
2 3 9 10 16 18 8 11 7 8 11 16 7 5 2 20 31 22 9 14 20 23 29 27 28 28 29 28 30 29 30 29 28 28 26 26 25 25 24 23 23 22 20 19 18 16 15 17 19
2 4 8 11 12 10 10 10 7 13 10 9 6 6 14 25 28 30 9 13 18 19 28 26 29 29 28 27 29 30 29 29 27 27 27 26 22 23 23 20 24 22 20 19 17 16 17 19 18
3 3 3 5 4 7 14 11 14 8 14 10 11 9 25 28 25 23 20 12 20 21 28 28 27 28 29 27 29 27 27 26 25 25 27 24 23 22 22 22 25 23 21 20 17 17 17 16 14
6 4 5 2 7 5 11 15 8 11 11 9 11 20 22 26 26 19 23 20 20 25 27 28 28 28 29 28 29 28 27 27 27 25 26 24 24 26 25 24 22 23 23 21 19 17 13 11 12
5 3 6 8 9 9 13 14 15 16 18 19 20 20 19 19 18 20 22 23 21 25 25 29 28 27 28 27 29 27 27 27 29 31 29 30 26 29 28 25 21 28 24 24 17 13 12 12 12
1 5 8 11 17 15 14 15 19 18 18 18 22 18 19 15 15 19 17 18 22 19 29 32 28 28 28 29 27 26 28 28 28 32 33 31 31 32 28 25 22 27 26 20 16 14 14 13 13
8 11 14 9 11 11 12 15 14 16 16 18 16 18 17 11 13 17 17 19 21 20 24 30 31 31 29 28 27 29 28 28 30 30 35 30 32 32 25 23 24 29 27 16 17 16 16 14 14
9 9 5 1 8 7 12 14 10 13 15 19 18 17 10 8 13 16 19 19 19 21 18 24 37 34 29 31 27 26 29 29 27 31 33 32 33 36 25 24 27 31 28 20 20 19 20 17 17
5 3 5 5 7 1 8 14 14 13 16 17 14 14 6 6 10 15 18 20 18 18 17 13 32 35 31 29 31 31 30 30 28 33 31 35 36 37 27 31 32 32 28 24 23 24 22 21 20
5 5 9 7 5 10 5 15 15 17 17 12 9 8 4 4 12 19 21 23 21 18 16 14 16 38 33 31 33 34 30 29 33 31 33 34 37 38 34 27 33 31 28 26 26 26 25 23 22
7 6 9 11 10 13 9 12 11 15 13 15 13 11 9 7 12 20 23 23 22 19 16 11 11 28 33 31 34 31 32 27 37 32 33 36 37 38 36 34 35 32 29 28 28 28 25 25 24
6 8 12 12 8 16 10 3 10 12 15 15 13 13 12 12 13 17 22 22 25 26 23 15 9 6 31 32 30 27 28 32 32 32 36 36 38 38 38 37 36 34 34 34 31 29 28 23 23
3 5 5 9 5 11 8 3 6 10 12 11 12 13 14 15 16 22 24 26 28 28 27 20 15 8 9 31 29 23 28 30 32 35 34 39 40 40 40 39 37 38 35 36 35 34 26 16 28
2 3 6 9 18 1 13 4 2 5 10 10 11 8 12 14 16 18 24 25 27 28 30 26 21 16 10 11 30 26 23 24 29 30 31 40 40 39 40 38 37 39 39 39 39 37 33 19 28
5 2 11 13 9 4 8 5 7 7 6 15 17 17 15 15 15 15 22 22 23 26 31 28 23 22 16 2 20 26 23 16 22 28 30 35 39 40 40 38 37 41 41 40 41 38 35 25 26
6 15 12 6 2 4 6 4 6 8 9 17 17 17 17 15 14 15 20 22 21 26 31 30 24 21 26 8 3 25 24 24 17 25 28 32 36 39 40 39 39 42 43 42 42 41 38 28 28
12 3 2 2 1 0 5 4 4 8 8 10 13 14 15 15 14 15 18 19 22 25 26 29 25 25 26 19 13 9 6 26 21 24 26 27 32 36 39 39 40 41 44 43 44 43 43 39 30
12 3 2 0 2 4 4 2 2 8 7 8 11 12 11 12 13 14 17 20 22 23 26 27 29 28 29 28 17 16 11 4 10 21 24 23 27 30 36 39 40 42 43 45 43 43 45 44 36
6 5 3 4 5 4 3 4 3 3 6 7 8 7 9 11 12 12 17 18 18 20 22 23 23 21 24 26 26 20 14 12 7 4 6 21 23 28 34 37 38 41 42 43 44 43 45 43 42
4 5 2 0 1 3 3 2 7 4 4 4 6 7 8 10 11 12 16 15 14 18 19 21 22 17 21 22 24 24 19 14 9 5 4 7 10 18 23 33 37 38 37 37 40 41 44 43 44
4 3 1 1 5 4 1 3 4 7 9 8 7 8 8 8 9 9 13 16 16 15 15 16 16 20 20 22 23 22 23 17 12 6 6 5 6 6 20 25 32 37 38 39 38 37 36 35 37
1 1 4 1 2 3 5 1 4 5 6 9 10 8 8 7 7 8 12 14 12 13 16 17 18 19 19 21 22 21 21 19 16 13 9 6 8 9 7 9 27 33 35 39 39 37 35 34 33
2 1 1 3 1 1 3 5 4 5 5 6 12 11 8 7 6 6 9 11 14 16 15 18 19 18 18 17 14 14 15 17 16 14 12 11 7 7 9 15 8 18 33 34 38 37 34 38 38
Wind_Direction
10 5 292 275 191 247 213 223 233 240 205 261 256 202 201 287 179 148 75 175 162 164 168 173 175 169 172 167 165 165 164 161 156 152 149 145 145 141 135 133 132 130 129 125 122 121 120 120 121
349 317 356 39 248 217 194 210 204 211 316 343 263 233 227 218 263 334 126 171 171 166 168 173 176 172 171 173 167 167 167 163 162 157 156 152 148 146 142 137 137 135 132 129 125 124 126 127 126
326 210 245 186 231 227 247 209 210 180 257 312 287 261 265 224 264 7 297 169 170 169 170 174 177 172 173 173 173 169 168 165 166 164 161 159 154 149 147 142 143 137 135 133 134 134 133 134 131
360 188 218 242 223 257 212 74 201 161 254 276 289 266 248 330 342 357 164 169 170 172 172 179 180 174 173 173 174 174 173 165 169 169 165 163 159 154 150 150 147 144 143 144 138 134 135 133 133
184 252 230 226 240 233 244 273 14 158 208 256 261 237 272 21 353 332 175 178 175 177 175 178 180 176 175 173 171 169 170 170 171 170 166 165 163 158 156 155 151 151 148 142 139 137 136 134 133
191 252 225 232 233 241 242 300 299 238 189 267 234 253 251 52 11 342 240 187 183 179 180 173 181 178 178 176 170 172 170 172 174 171 170 167 165 163 163 160 157 155 149 143 140 138 138 138 134
286 243 249 251 238 256 234 343 283 296 245 230 299 265 257 318 350 331 264 202 185 182 181 172 178 180 181 177 176 174 172 175 174 171 169 167 165 166 165 163 158 156 150 146 143 144 145 143 141
322 272 262 248 247 248 15 335 3 15 290 330 268 297 190 325 337 330 245 202 189 182 180 174 177 180 179 182 178 178 177 178 175 172 169 166 166 166 165 165 161 158 156 152 150 148 144 146 147
306 240 260 258 265 266 356 345 341 324 275 313 298 35 350 333 339 353 258 199 195 184 182 176 179 180 180 179 182 182 183 179 177 175 173 168 161 162 165 162 165 162 161 158 158 153 154 154 150
330 259 287 3 315 297 310 315 321 322 313 292 310 324 346 340 345 343 338 226 209 189 187 181 183 181 181 180 181 182 181 177 175 174 173 169 166 165 165 170 167 165 165 164 163 161 157 145 145
356 321 356 334 313 307 298 296 315 295 288 288 319 322 332 331 332 335 331 326 235 204 195 189 185 184 182 183 181 182 182 179 177 176 173 168 163 162 168 162 161 167 171 168 166 156 150 156 151
322 3 333 304 310 297 286 295 283 277 275 288 299 309 308 319 321 332 328 328 302 224 204 194 190 188 187 183 184 186 181 178 176 176 178 172 168 169 165 165 165 171 172 172 163 160 158 157 154
35 338 309 299 295 287 280 263 267 274 282 278 286 292 298 315 323 325 327 327 319 285 213 198 191 193 189 188 186 186 184 185 180 179 181 175 176 171 165 168 170 177 177 170 166 161 156 155 155
324 310 295 293 297 297 300 286 274 275 272 271 264 278 293 318 335 331 338 336 329 314 234 203 194 196 191 189 189 189 186 184 185 182 184 181 180 178 172 172 177 183 180 170 167 165 159 156 155
313 316 319 177 348 310 326 283 263 277 279 284 265 262 269 330 349 348 342 332 328 316 295 220 200 199 194 192 191 194 189 187 189 188 187 186 187 185 178 176 178 185 184 176 169 167 168 161 161
328 243 336 338 334 328 317 299 322 343 316 285 251 246 223 2 350 356 345 340 337 321 307 277 206 202 198 191 190 195 196 191 191 195 192 193 195 189 185 189 187 189 187 185 179 174 167 166 167
37 324 329 328 2 330 332 300 335 355 323 261 231 221 146 40 1 359 357 351 342 335 327 298 255 206 201 198 199 202 196 194 193 195 193 196 199 198 193 187 191 191 189 184 183 178 177 172 169
326 329 327 315 328 327 320 327 356 13 6 18 25 35 32 35 1 358 0 356 344 352 351 340 261 216 203 196 197 201 203 199 195 197 197 202 200 200 200 197 195 192 192 189 186 183 180 179 174
278 282 298 309 320 336 338 356 42 23 21 21 14 15 10 358 352 360 358 4 351 8 1 12 7 246 221 201 192 194 189 202 197 201 200 199 202 202 203 202 197 194 196 195 191 183 181 172 171
238 286 326 306 327 328 329 12 31 33 32 19 11 3 6 358 357 2 355 1 4 0 351 7 1 338 253 209 193 199 197 198 199 201 199 205 204 206 206 206 201 197 197 196 194 190 174 179 178
284 267 326 320 321 190 328 197 4 39 35 18 22 20 14 7 357 350 352 355 3 356 351 3 354 341 307 219 210 203 198 202 198 199 194 204 208 208 208 208 206 202 202 200 199 196 188 175 188
307 217 308 309 329 349 11 345 49 351 28 16 12 6 8 0 359 354 352 347 356 350 356 5 4 347 339 228 194 198 202 197 202 195 194 198 206 211 211 211 211 207 207 208 206 202 197 188 186
279 327 300 270 289 298 21 282 10 11 352 3 1 358 353 358 2 354 344 341 346 359 358 359 10 3 352 28 227 211 216 216 202 197 198 201 202 211 215 213 212 210 208 212 212 208 203 199 194
307 324 183 193 235 29 349 334 32 355 325 336 347 345 344 347 354 357 345 350 347 359 359 4 354 15 352 28 20 153 191 211 197 200 204 201 196 204 211 215 215 216 212 212 216 215 212 208 205
353 312 339 173 8 17 328 297 330 308 304 308 322 330 336 343 357 353 350 352 350 355 355 2 357 1 7 19 26 41 69 106 225 215 203 200 199 197 205 212 211 212 217 216 215 214 217 214 210
11 5 21 349 342 340 319 4 7 267 282 273 307 313 330 353 357 348 350 349 352 353 0 358 354 358 12 16 18 20 54 54 74 31 253 220 211 201 207 217 215 218 218 215 217 218 220 219 218
11 27 344 25 246 265 342 235 264 283 280 282 316 338 350 347 346 347 345 341 353 1 2 354 352 355 11 18 21 21 28 32 26 19 2 296 256 247 231 225 218 220 217 217 217 216 219 219 221
33 122 250 140 349 335 308 267 321 327 324 330 335 338 336 335 340 339 335 342 0 358 6 352 354 356 359 17 20 21 22 10 7 21 30 351 317 320 225 234 231 223 227 235 223 219 221 218 219
32 49 54 78 326 320 312 248 195 240 277 306 312 314 311 310 317 331 339 344 352 3 6 352 1 7 360 14 9 15 15 357 7 9 16 350 329 321 324 275 228 233 233 229 223 222 225 227 228
38 320 305 321 2 358 304 281 164 244 279 278 292 302 302 293 299 313 341 348 352 359 1 2 359 0 4 6 9 14 8 3 3 355 6 352 338 321 326 314 257 237 229 231 228 227 219 218 220